TimeEDT,TemperatureF,Dew PointF,Humidity,Sea Level PressureIn,VisibilityMPH,Wind Direction,Wind SpeedMPH,Gust SpeedMPH,PrecipitationIn,Events,Conditions,WindDirDegrees,DateUTC
12:53 AM,66.9,64.9,93,30.12,10.0,South,8.1,-,N/A,,Clear,170,2012-09-15 04:53:00
1:53 AM,66.0,64.9,96,30.10,10.0,South,6.9,-,N/A,,Clear,170,2012-09-15 05:53:00
2:53 AM,66.0,64.0,93,30.07,10.0,SSE,5.8,-,N/A,,Partly Cloudy,160,2012-09-15 06:53:00
3:53 AM,64.9,64.0,97,30.05,10.0,SSE,6.9,-,N/A,,Clear,160,2012-09-15 07:53:00
4:53 AM,64.9,64.0,97,30.05,10.0,South,4.6,-,N/A,,Partly Cloudy,170,2012-09-15 08:53:00
5:53 AM,64.9,64.9,100,30.04,10.0,South,4.6,-,N/A,,Partly Cloudy,180,2012-09-15 09:53:00
6:53 AM,66.9,66.0,97,30.06,10.0,Calm,Calm,-,0.01,,Mostly Cloudy,0,2012-09-15 10:53:00
7:53 AM,69.1,66.0,90,30.04,10.0,SSW,6.9,-,N/A,,Partly Cloudy,210,2012-09-15 11:53:00
8:19 AM,69.8,66.2,88,30.04,10.0,SSW,6.9,-,N/A,,Mostly Cloudy,200,2012-09-15 12:19:00
8:27 AM,69.8,66.2,88,30.04,10.0,South,4.6,-,N/A,,Scattered Clouds,190,2012-09-15 12:27:00
8:53 AM,70.0,66.0,87,30.04,10.0,SSW,6.9,-,N/A,,Clear,200,2012-09-15 12:53:00
9:53 AM,72.0,66.9,84,30.04,10.0,SSW,9.2,-,N/A,,Clear,210,2012-09-15 13:53:00
10:53 AM,71.1,66.0,84,30.02,10.0,SW,10.4,-,N/A,,Partly Cloudy,230,2012-09-15 14:53:00
11:53 AM,72.0,64.0,76,30.00,10.0,SW,11.5,-,N/A,,Scattered Clouds,220,2012-09-15 15:53:00
12:24 PM,71.6,62.6,73,30.00,10.0,NW,13.8,-,N/A,,Overcast,310,2012-09-15 16:24:00
12:33 PM,71.6,64.4,78,30.00,10.0,NW,16.1,-,N/A,,Mostly Cloudy,310,2012-09-15 16:33:00
12:53 PM,71.1,64.0,78,29.99,10.0,NNW,12.7,21.9,N/A,,Mostly Cloudy,330,2012-09-15 16:53:00
1:11 PM,69.8,62.6,78,29.99,10.0,NNW,13.8,-,N/A,,Overcast,340,2012-09-15 17:11:00
1:49 PM,68.0,62.6,83,29.98,10.0,North,11.5,-,0.00,,Overcast,360,2012-09-15 17:49:00
1:53 PM,66.9,61.0,81,29.98,10.0,North,11.5,-,0.00,Rain,Light Rain,360,2012-09-15 17:53:00
2:40 PM,69.8,60.8,73,29.97,10.0,North,9.2,-,0.00,,Overcast,360,2012-09-15 18:40:00
2:53 PM,70.0,61.0,73,29.97,10.0,North,10.4,-,0.00,,Mostly Cloudy,360,2012-09-15 18:53:00
3:04 PM,69.8,59.0,68,29.97,10.0,North,10.4,-,N/A,,Scattered Clouds,360,2012-09-15 19:04:00
3:53 PM,70.0,55.0,59,29.98,10.0,North,11.5,-,N/A,,Clear,350,2012-09-15 19:53:00
4:53 PM,70.0,55.9,61,29.98,10.0,North,5.8,-,N/A,,Clear,10,2012-09-15 20:53:00
5:53 PM,69.1,57.0,65,29.99,10.0,NNW,4.6,-,N/A,,Partly Cloudy,340,2012-09-15 21:53:00
6:53 PM,66.0,57.0,73,30.00,10.0,NNW,4.6,-,N/A,,Partly Cloudy,340,2012-09-15 22:53:00
7:53 PM,64.9,52.0,63,30.01,10.0,NNW,6.9,-,N/A,,Scattered Clouds,340,2012-09-15 23:53:00
8:53 PM,64.9,52.0,63,30.01,10.0,North,9.2,-,N/A,,Clear,350,2012-09-16 00:53:00
9:53 PM,64.9,51.1,61,30.03,10.0,North,13.8,-,N/A,,Mostly Cloudy,350,2012-09-16 01:53:00
10:53 PM,64.0,45.0,50,30.03,10.0,North,11.5,-,N/A,,Clear,360,2012-09-16 02:53:00
11:53 PM,64.0,46.0,52,30.03,10.0,North,15.0,-,N/A,,Clear,360,2012-09-16 03:53:00